• In Hungary
  • List of Countries
  • For 7 days
  • Water Temperature
  • Satellite Maps
  • Weather Map
  • News
  • Weather Widgets
  • user-avatar
    Login

    Hourly Weather Manama

    Today, 23 May, Wednesday

    Time Temperature Precipitation Wind Pressure Humidity
    00:00 +34°C° 0 mm 2 mps 756 mmHg 27%
    01:00 +34°C° 0 mm 2 mps 756 mmHg 28%
    02:00 +34°C° 0 mm 2 mps 756 mmHg 29%
    03:00 +32°C° 0 mm 2 mps 756 mmHg 32%
    04:00 +32°C° 0 mm 1 mps 756 mmHg 33%
    05:00 +32°C° 0 mm 1 mps 756 mmHg 33%
    06:00 +30°C° 0 mm 0 mps 756 mmHg 33%
    07:00 +33°C° 0 mm 1 mps 757 mmHg 31%
    08:00 +34°C° 0 mm 1 mps 757 mmHg 29%
    09:00 +35°C° 0 mm 1 mps 757 mmHg 29%
    10:00 +36°C° 0 mm 1 mps 757 mmHg 27%
    11:00 +37°C° 0 mm 1 mps 757 mmHg 25%
    12:00 +39°C° 0 mm 2 mps 757 mmHg 23%
    13:00 +39°C° 0 mm 2 mps 757 mmHg 22%
    14:00 +40°C° 0 mm 2 mps 756 mmHg 21%
    15:00 +40°C° 0 mm 3 mps 755 mmHg 20%
    16:00 +39°C° 0 mm 3 mps 755 mmHg 22%
    17:00 +39°C° 0 mm 3 mps 755 mmHg 23%
    18:00 +38°C° 0 mm 3 mps 755 mmHg 25%
    19:00 +37°C° 0 mm 3 mps 755 mmHg 25%
    20:00 +37°C° 0 mm 2 mps 755 mmHg 26%
    21:00 +36°C° 0 mm 2 mps 755 mmHg 26%
    22:00 +36°C° 0 mm 2 mps 755 mmHg 25%
    23:00 +35°C° 0 mm 2 mps 754 mmHg 25%

    Tomorrow, 24 May, Thursday

    Time Temperature Precipitation Wind Pressure Humidity
    00:00 +35°C° 0 mm 2 mps 754 mmHg 24%
    01:00 +34°C° 0 mm 2 mps 754 mmHg 26%
    02:00 +32°C° 0 mm 2 mps 754 mmHg 28%
    03:00 +32°C° 0 mm 2 mps 754 mmHg 30%
    04:00 +32°C° 0 mm 2 mps 754 mmHg 28%
    05:00 +34°C° 0 mm 2 mps 754 mmHg 27%
    06:00 +34°C° 0 mm 3 mps 755 mmHg 25%
    07:00 +35°C° 0 mm 3 mps 755 mmHg 22%
    08:00 +37°C° 0 mm 3 mps 755 mmHg 19%
    09:00 +38°C° 0 mm 3 mps 755 mmHg 17%
    10:00 +39°C° 0 mm 2 mps 754 mmHg 16%
    11:00 +39°C° 0 mm 2 mps 754 mmHg 16%
    12:00 +40°C° 0 mm 2 mps 754 mmHg 15%
    13:00 +40°C° 0 mm 2 mps 753 mmHg 15%
    14:00 +40°C° 0 mm 3 mps 753 mmHg 16%
    15:00 +40°C° 0 mm 3 mps 753 mmHg 16%
    16:00 +39°C° 0 mm 3 mps 752 mmHg 18%
    17:00 +39°C° 0 mm 3 mps 752 mmHg 21%
    18:00 +38°C° 0 mm 4 mps 752 mmHg 24%
    19:00 +37°C° 0 mm 3 mps 752 mmHg 26%
    20:00 +36°C° 0 mm 3 mps 752 mmHg 29%
    21:00 +36°C° 0 mm 3 mps 753 mmHg 32%
    22:00 +35°C° 0 mm 3 mps 752 mmHg 32%
    23:00 +35°C° 0 mm 3 mps 752 mmHg 32%

    Day after tomorrow, 25 May, Friday

    Time Temperature Precipitation Wind Pressure Humidity
    00:00 +35°C° 0 mm 3 mps 752 mmHg 32%
    01:00 +35°C° 0 mm 3 mps 752 mmHg 32%
    02:00 +34°C° 0 mm 3 mps 751 mmHg 31%
    03:00 +34°C° 0 mm 2 mps 751 mmHg 31%
    04:00 +34°C° 0 mm 2 mps 751 mmHg 31%
    05:00 +34°C° 0 mm 2 mps 752 mmHg 31%
    06:00 +34°C° 0 mm 2 mps 752 mmHg 31%
    07:00 +35°C° 0 mm 2 mps 753 mmHg 28%
    08:00 +36°C° 0 mm 2 mps 753 mmHg 26%
    09:00 +37°C° 0 mm 2 mps 753 mmHg 23%
    10:00 +38°C° 0 mm 2 mps 753 mmHg 22%
    11:00 +39°C° 0 mm 2 mps 753 mmHg 21%
    12:00 +40°C° 0 mm 2 mps 753 mmHg 19%
    13:00 +40°C° 0 mm 3 mps 752 mmHg 19%
    14:00 +40°C° 0 mm 3 mps 752 mmHg 18%
    15:00 +42°C° 0 mm 4 mps 751 mmHg 18%
    16:00 +40°C° 0 mm 5 mps 751 mmHg 23%
    17:00 +39°C° 0 mm 6 mps 751 mmHg 28%
    18:00 +38°C° 0 mm 7 mps 751 mmHg 33%
    19:00 +38°C° 0 mm 7 mps 751 mmHg 33%
    20:00 +36°C° 0 mm 7 mps 752 mmHg 34%
    21:00 +36°C° 0 mm 6 mps 752 mmHg 34%
    22:00 +35°C° 0 mm 5 mps 752 mmHg 35%
    23:00 +35°C° 0 mm 4 mps 752 mmHg 36%

    26 May, Saturday

    Time Temperature Precipitation Wind Pressure Humidity
    00:00 +34°C° 0 mm 3 mps 752 mmHg 37%
    01:00 +34°C° 0 mm 3 mps 752 mmHg 37%
    02:00 +34°C° 0 mm 2 mps 752 mmHg 36%
    03:00 +32°C° 0 mm 2 mps 752 mmHg 36%
    04:00 +34°C° 0 mm 2 mps 752 mmHg 35%
    05:00 +34°C° 0 mm 2 mps 753 mmHg 34%
    06:00 +34°C° 0 mm 2 mps 753 mmHg 34%
    07:00 +35°C° 0 mm 2 mps 753 mmHg 32%
    08:00 +36°C° 0 mm 2 mps 754 mmHg 31%
    09:00 +37°C° 0 mm 3 mps 754 mmHg 29%
    10:00 +38°C° 0 mm 2 mps 754 mmHg 28%
    11:00 +38°C° 0 mm 2 mps 754 mmHg 27%
    12:00 +39°C° 0 mm 2 mps 754 mmHg 26%
    13:00 +39°C° 0 mm 2 mps 753 mmHg 25%
    14:00 +40°C° 0 mm 3 mps 753 mmHg 24%
    15:00 +41°C° 0 mm 4 mps 752 mmHg 23%
    16:00 +40°C° 0 mm 4 mps 752 mmHg 27%
    17:00 +39°C° 0 mm 5 mps 753 mmHg 32%
    18:00 +37°C° 0 mm 5 mps 753 mmHg 37%
    19:00 +36°C° 0 mm 5 mps 753 mmHg 40%
    20:00 +36°C° 0 mm 5 mps 754 mmHg 43%
    21:00 +35°C° 0 mm 5 mps 754 mmHg 46%
    22:00 +35°C° 0 mm 4 mps 754 mmHg 47%
    23:00 +34°C° 0 mm 4 mps 754 mmHg 47%

    27 May, Sunday

    Time Temperature Precipitation Wind Pressure Humidity
    00:00 +34°C° 0 mm 4 mps 754 mmHg 48%
    01:00 +34°C° 0 mm 4 mps 754 mmHg 49%
    02:00 +34°C° 0 mm 4 mps 754 mmHg 50%
    03:00 +33°C° 0 mm 4 mps 754 mmHg 51%
    04:00 +33°C° 0 mm 4 mps 754 mmHg 52%
    05:00 +33°C° 0 mm 4 mps 755 mmHg 53%
    06:00 +33°C° 0 mm 3 mps 755 mmHg 55%
    07:00 +34°C° 0 mm 3 mps 755 mmHg 52%
    08:00 +35°C° 0 mm 3 mps 756 mmHg 49%
    09:00 +35°C° 0 mm 2 mps 756 mmHg 47%
    10:00 +36°C° 0 mm 2 mps 756 mmHg 44%
    11:00 +37°C° 0 mm 3 mps 755 mmHg 41%
    12:00 +38°C° 0 mm 3 mps 755 mmHg 38%
    13:00 +38°C° 0 mm 4 mps 755 mmHg 38%
    14:00 +38°C° 0 mm 4 mps 754 mmHg 38%
    15:00 +40°C° 0 mm 5 mps 754 mmHg 39%
    16:00 +39°C° 0 mm 5 mps 754 mmHg 42%
    17:00 +37°C° 0 mm 5 mps 754 mmHg 45%
    18:00 +36°C° 0 mm 5 mps 754 mmHg 49%
    19:00 +35°C° 0 mm 4 mps 754 mmHg 50%
    20:00 +35°C° 0 mm 3 mps 754 mmHg 52%
    21:00 +35°C° 0 mm 3 mps 755 mmHg 53%
    22:00 +34°C° 0 mm 3 mps 754 mmHg 53%
    23:00 +34°C° 0 mm 3 mps 754 mmHg 53%

    28 May, Monday

    Time Temperature Precipitation Wind Pressure Humidity
    00:00 +34°C° 0 mm 3 mps 754 mmHg 53%
    01:00 +34°C° 0 mm 3 mps 753 mmHg 53%
    02:00 +34°C° 0 mm 3 mps 753 mmHg 53%
    03:00 +34°C° 0 mm 3 mps 753 mmHg 53%
    04:00 +34°C° 0 mm 3 mps 754 mmHg 53%
    05:00 +34°C° 0 mm 3 mps 754 mmHg 53%
    06:00 +34°C° 0 mm 3 mps 754 mmHg 53%
    07:00 +35°C° 0 mm 2 mps 755 mmHg 49%
    08:00 +36°C° 0 mm 2 mps 755 mmHg 45%
    09:00 +36°C° 0 mm 2 mps 755 mmHg 42%
    10:00 +37°C° 0 mm 3 mps 755 mmHg 39%
    11:00 +38°C° 0 mm 3 mps 754 mmHg 36%
    12:00 +40°C° 0 mm 4 mps 754 mmHg 33%
    13:00 +40°C° 0 mm 4 mps 754 mmHg 34%
    14:00 +40°C° 0 mm 4 mps 753 mmHg 35%
    15:00 +39°C° 0 mm 5 mps 753 mmHg 37%
    16:00 +38°C° 0 mm 4 mps 753 mmHg 38%
    17:00 +37°C° 0 mm 4 mps 753 mmHg 40%
    18:00 +37°C° 0 mm 4 mps 753 mmHg 42%
    19:00 +36°C° 0 mm 4 mps 753 mmHg 44%
    20:00 +36°C° 0 mm 4 mps 753 mmHg 46%
    21:00 +36°C° 0 mm 3 mps 753 mmHg 48%
    22:00 +35°C° 0 mm 4 mps 753 mmHg 49%
    23:00 +35°C° 0 mm 4 mps 753 mmHg 50%
    Show more